Regional Weather Roundup
Issued by NWS

Home | Current Version | Previous Version | Text Only | Print | Product List | Glossary On
Versions: 1 2 3 4 5 6 7 8 9 10 11 12 13 14 15 16 17 18 19 20 21 22 23 24 25 26 27 28 29 30 31 32 33 34 35 36 37 38 39 40 41 42 43 44 45 46 47 48 49 50
000
ASUS44 KOUN 191610
RWROK

WEATHER ROUNDUP FOR OKLAHOMA
NATIONAL WEATHER SERVICE NORMAN OK
1100 AM CDT TUE SEP 19 2017

NOTE: "FAIR" INDICATES FEW OR NO CLOUDS BELOW 12,000 FEET WITH NO
      SIGNIFICANT WEATHER AND/OR OBSTRUCTIONS TO VISIBILITY.

OKZ001>007-009>012-014-015-017-191700-
NORTHWEST OKLAHOMA AND THE PANHANDLE

CITY           SKY/WX    TMP DP  RH WIND       PRES   REMARKS
GAGE           SUNNY     83  64  52 S21G28    29.80F
GUYMON         SUNNY     82  52  35 S15       29.77F
ENID/WOODRING  MOSUNNY   84  72  65 S17G25    29.81S
$$

OKZ016-021>023-033>039-044-045-191700-
SOUTHWEST OKLAHOMA

CITY           SKY/WX    TMP DP  RH WIND       PRES   REMARKS
LAWTON/REGL    SUNNY     84  74  71 S15G24    29.87S HX  91
LAWTON/FT SILL SUNNY     84  76  76 S12       29.85F HX  92
FREDERICK      SUNNY     85  72  65 S16       29.83  HX  91
CLINTON        SUNNY     81  67  62 S23       29.86S
HOBART         SUNNY     81  71  71 S23       29.85S
ALTUS AFB      SUNNY     84  68  58 S16       29.85S
$$

OKZ018>020-024>031-191700-
CENTRAL OKLAHOMA

CITY           SKY/WX    TMP DP  RH WIND       PRES   REMARKS
OKLAHOMA CITY  MOSUNNY   84  72  67 S17       29.86F
OKC/WILEY POST SUNNY     85  73  67 S21G29    29.85F HX  91
OKC/TINKER AFB SUNNY     85  71  63 S22       29.87S
STILLWATER     SUNNY     86  71  60 S18       29.84F HX  91
GUTHRIE        SUNNY     87  70  56 S17G23    29.84F HX  92
$$

OKZ008-013-054>072-191700-
NORTHEAST OKLAHOMA

CITY           SKY/WX    TMP DP  RH WIND       PRES   REMARKS
TULSA          CLOUDY    78  71  79 SE10      29.87F
TULSA/JONES    PTSUNNY   76  71  85 SE5       29.89R
PONCA CITY     MOSUNNY   81  70  69 S17G31    29.83F
BARTLESVILLE   CLOUDY    81  69  67 VRB6      29.88F THUNDER
MUSKOGEE       PTSUNNY   73  70  90 E9        29.94F
$$

OKZ032-040>043-046>053-073>077-191700-
SOUTH CENTRAL/SOUTHEAST OKLAHOMA

CITY           SKY/WX    TMP DP  RH WIND       PRES   REMARKS
ARDMORE/DWNTWN SUNNY     86  70  58 SW10      29.91S HX  90
MCALESTER      SUNNY     84  74  71 S8        29.93S HX  91
$$




USA.gov is the U.S. government's official web portal to all federal, state and local government web resources and services.